Hourly Data Report for May 11, 2016

LA RONGE RCS
SASKATCHEWAN

55°08'47.020" N
105°16'13.030" W
378.60 m
4064149
71586
XOX

Download Data

Hourly Data (May 2016)
Hourly Data Report for May 11, 2016
TIME
LST
Temp Definition
°C
Dew Point Definition
°C
Rel Hum Definition
%
Precip. Amount Definition
mm

Wind Dir Definition
10's deg

Wind Spd Definition
km/h
Visibility Definition
km
Stn Press Definition
kPa
Hmdx Definition


Wind Chill Definition


Weather Definition


00:00 6.7 -1.3 57 0.0 5 17   97.71     LegendNANA
01:00 5.4 -1.6 61 0.0 5 16   97.74     LegendNANA
02:00 4.4 -2.1 63 0.0 4 15   97.77     LegendNANA
03:00 3.5 -2.9 63 0.0 3 20   97.79     LegendNANA
04:00 2.5 -3.8 63 0.0 4 25   97.79     LegendNANA
05:00 1.8 -3.7 67 0.0 3 23   97.81     LegendNANA
06:00 1.5 -3.9 67 0.0 3 21   97.84     LegendNANA
07:00 1.7 -3.7 68 0.0 1 21   97.84     LegendNANA
08:00 2.6 -3.4 64 0.0 1 22   97.84     LegendNANA
09:00 3.3 -3.5 61 0.0 2 22   97.84     LegendNANA
10:00 3.4 -4.0 58 0.0 4 21   97.84     LegendNANA
11:00 3.7 -3.8 58 0.0 2 21   97.85     LegendNANA
12:00 4.1 -3.7 57 0.0 2 22   97.84     LegendNANA
13:00 4.0 -3.7 57 0.0 35 25   97.84     LegendNANA
14:00 3.9 -3.3 59 0.0 2 20   97.88     LegendNANA
15:00 3.3 -3.1 63 0.0 1 22   97.88     LegendNANA
16:00 3.4 -3.3 61 0.0 2 20   97.88     LegendNANA
17:00 3.9 -3.5 59 0.0 3 22   97.88     LegendNANA
18:00 4.0 -3.5 58 0.0 3 18   97.89     LegendNANA
19:00 3.8 -3.8 58 0.0 3 20   97.90     LegendNANA
20:00 3.0 -2.6 67 0.0 4 15   97.91     LegendNANA
21:00 2.0 -1.8 76 0.0 1 17   97.93     LegendNANA
22:00 1.0 -0.6 89 0.0 3 18   97.94     LegendNANA
23:00 0.5 -0.6 92 0.0 2 19   97.95     LegendNANA

Notes on Data Quality.

Legend

  • E = Estimated
  • M = Missing
  • NA = Not Available*
  • [empty] = Indicates an unobserved value
Date modified: